Regional Weather Roundup
Issued by NWS

Home | Current Version | Previous Version | Graphics & Text | Print | Product List | Glossary On
Versions: 1 2 3 4 5 6 7 8 9 10 11 12 13 14 15 16 17 18 19 20 21 22 23 24 25 26 27 28 29 30 31 32 33 34 35 36 37 38 39 40 41 42 43 44 45 46 47 48 49 50
000
ASUS43 KFSD 240802
RWRSD

WEATHER ROUNDUP FOR SOUTH DAKOTA
NATIONAL WEATHER SERVICE SIOUX FALLS SD
300 AM CDT FRI MAR 24 2017

NOTE: "FAIR" INDICATES FEW OR NO CLOUDS BELOW 12,000 FEET WITH NO
SIGNIFICANT WEATHER AND/OR OBSTRUCTIONS TO VISIBILITY.


SDZ001>005-009-010-012>017-240900-
NORTHWEST AND NORTH CENTRAL SOUTH DAKOTA

CITY           SKY/WX    TMP DP  RH WIND       PRES   REMARKS
BUFFALO          N/A     36  34  92 W10       29.91R
FAITH            N/A     38  38 100 NW10      29.96R
MOBRIDGE       MOCLDY    36  31  82 N7        29.90R
$$

SDZ012>016-024>037-041>051-057-063-072>074-240900-
SOUTHWEST AND SOUTH CENTRAL SOUTH DAKOTA

CITY           SKY/WX    TMP DP  RH WIND       PRES   REMARKS
RAPID CTY ARPT CLOUDY    41  37  86 NW12      29.98R
PIERRE         CLOUDY    40  36  86 N9        29.91R
CUSTER         CLOUDY    36  31  82 NE12      29.96R
ELLSWORTH AFB  CLOUDY    43  40  89 N13       29.97
PHILIP         CLOUDY    40  37  89 NW9       29.95R
PINE RIDGE     CLOUDY    43  38  82 N10       29.93R
SPEARFISH      CLOUDY    39  39 100 CALM      29.99S
WINNER         FAIR      42  39  89 N8        29.88R
$$

SDZ004>011-016>023-039-040-240900-
NORTHEAST SOUTH DAKOTA

CITY           SKY/WX    TMP DP  RH WIND       PRES   REMARKS
ABERDEEN       CLOUDY    35  32  88 N9        29.91R WCI  28
WATERTOWN      FOG       33  33 100 N10       29.84R VSB 1   WCI  25
BROOKINGS      CLOUDY    35  34  96 N9        29.80F FOG     WCI  28
SISSETON         N/A     34  34 100 NE5       29.90R WCI  30
$$

SDZ017-020-022-023-036>040-048>070-240900-
SOUTHEAST SOUTH DAKOTA

CITY           SKY/WX    TMP DP  RH WIND       PRES   REMARKS
SIOUX FALLS    CLOUDY    42  40  92 N7        29.78S
HURON          CLOUDY    37  37 100 N9        29.85R
CHAMBERLAIN    CLOUDY    41  38  89 NW9       29.87R
MITCHELL       CLOUDY    41  40  96 N15       29.84S
YANKTON        CLOUDY    46  45  93 NW10      29.79R
$$

ABBREVIATIONS USED IN REMARKS
   TC - TEMPERATURE IN CELSIUS
  WCI - WIND CHILL INDEX
   HX - HEAT INDEX
  VSB - VISIBILITY




USA.gov is the U.S. government's official web portal to all federal, state and local government web resources and services.